Regional Weather Roundup
Issued by NWS

Home | Current Version | Previous Version | Text Only | Print | Product List | Glossary On
Versions: 1 2 3 4 5 6 7 8 9 10 11 12 13 14 15 16 17 18 19 20 21 22 23 24 25 26 27 28 29 30 31 32 33 34 35 36 37 38 39 40 41 42 43 44 45 46 47 48 49 50
000
ASUS44 KFWD 210003
RWRTX
NORTH TEXAS HOURLY WEATHER ROUNDUP
NATIONAL WEATHER SERVICE FORT WORTH TX
700 PM CDT FRI OCT 20 2017

NOTE: "FAIR" INDICATES FEW OR NO CLOUDS BELOW 12,000 FEET WITH NO
SIGNIFICANT WEATHER AND/OR OBSTRUCTIONS TO VISIBILITY.

TXZ118-119-210100-
DALLAS/FORT WORTH METROPLEX

CITY           SKY/WX    TMP DP  RH WIND       PRES   REMARKS
DFW AIRPORT    MOCLDY    80  66  62 S21G26    29.89R
6HR MIN TEMP:  73; 6HR MAX TEMP:  84; 6HR PCP: TRACE;

DALLAS LOVE    MOCLDY    80  65  59 SE20      29.91R
6HR MIN TEMP:  74; 6HR MAX TEMP:  84;

FTW MEACHAM    MOCLDY    81  65  58 S12       29.89R
6HR MIN TEMP:  73; 6HR MAX TEMP:  82;

DAL-EXECUTIVE  PTCLDY    78  65  63 SE13G23   29.91R
6HR MIN TEMP:  75; 6HR MAX TEMP:  84; 6HR PCP: TRACE;

FTW-ALLIANCE   MOCLDY    79  65  62 SE10      29.89S
6HR MIN TEMP:  73; 6HR MAX TEMP:  81; 6HR PCP: TRACE;

ARLINGTON      CLOUDY    78  67  68 SE13      29.91R
6HR MIN TEMP:  70; 6HR MAX TEMP:  82; 6HR PCP: TRACE;

GRAND PRAIRIE  CLEAR     79  64  61 SE15G21   29.92R
ADDISON        MOCLDY    79  64  61 MISG      29.91R
LANCASTER      PTCLDY    77  63  61 SE17      29.92R
6HR MIN TEMP:  74; 6HR MAX TEMP:  83;

$$

TXZ091>094-102>105-117-120-121-131>134-210100-
NORTH CENTRAL TEXAS

CITY           SKY/WX    TMP DP  RH WIND       PRES   REMARKS
SHRMAN/DENISON MOCLDY    78  64  62 SE18G25   29.92R
6HR MIN TEMP:  77; 6HR MAX TEMP:  81;

GAINESVILLE    MOCLDY    75  64  67 S7        29.92S
6HR MIN TEMP:  75; 6HR MAX TEMP:  80;

BOWIE          MOCLDY    75  65  71 S9G16     29.90S
6HR MIN TEMP:  74; 6HR MAX TEMP:  80;

BRIDGEPORT     CLOUDY    76  64  65 SE5       29.91F
6HR MIN TEMP:  76; 6HR MAX TEMP:  80;

DECATUR        PTCLDY    76  65  68 S7        29.89F
6HR MIN TEMP:  75; 6HR MAX TEMP:  78;

DENTON         CLOUDY    78  65  63 SE14      29.89S
6HR MIN TEMP:  74; 6HR MAX TEMP:  82;

MCKINNEY       CLEAR     77  66  68 SE13      29.91R
6HR MIN TEMP:  76; 6HR MAX TEMP:  83;

BONHAM         MOCLDY    76  63  62 SE13      29.92S
6HR MIN TEMP:  75; 6HR MAX TEMP:  82;

ROCKWALL       CLEAR     76  63  62 SE15G24   29.92S
6HR MIN TEMP:  76; 6HR MAX TEMP:  84;

TERRELL        PTCLDY    77  61  57 SE15G22   29.93S
6HR MIN TEMP:  76; 6HR MAX TEMP:  86;

WAXAHACHIE     PTCLDY    76  66  69 SE8G17    29.93R
6HR MIN TEMP:  71; 6HR MAX TEMP:  83;

CLEBURNE       CLOUDY    77  68  73 SE13G21   29.92S
GRANBURY       PTCLDY    79  64  60 SE7       29.90F
6HR MIN TEMP:  74; 6HR MAX TEMP:  82;

$$

TXZ083>090-098>101-113>116-127>130-139>142-154-155-210100-
WESTERN NORTH TEXAS

CITY           SKY/WX    TMP DP  RH WIND       PRES   REMARKS
WICHITA FALLS  PTCLDY    75  63  66 S17       29.85S
6HR MIN TEMP:  75; 6HR MAX TEMP:  82; 6HR PCP: TRACE;

WF-KICKAPOO    PTCLDY    76  64  66 SE14G21   29.88S
6HR MIN TEMP:  76; 6HR MAX TEMP:  83;

VERNON         CLEAR     80  56  44 S15G22    29.82S
6HR MIN TEMP:  63; 6HR MAX TEMP:  86;

ABILENE        CLEAR     76  60  57 S14       29.86F
6HR MIN TEMP:  72; 6HR MAX TEMP:  82; 6HR PCP: TRACE;

BRECKENRIDGE   PTCLDY    78  63  61 SE16      29.88R HAZE
6HR MIN TEMP:  78; 6HR MAX TEMP:  83;

CISCO          PTCLDY    75  63  64 SE16G22   29.90S
EASTLAND       CLOUDY    74  65  73 SE10      29.90R
6HR MIN TEMP:  74; 6HR MAX TEMP:  80;

RANGER         CLOUDY    73  65  74 SE12      29.91S
6HR MIN TEMP:  42; 6HR MAX TEMP:  91;

MINERAL WELLS  MOCLDY    76  64  66 S6        29.88F
6HR MIN TEMP:  76; 6HR MAX TEMP:  82;

STEPHENVILLE   CLOUDY    76  65  68 S8        29.94S
6HR MIN TEMP:  75; 6HR MAX TEMP:  80;

COMANCHE       PTCLDY    74  66  76 SE7       29.92R
6HR MIN TEMP:  74; 6HR MAX TEMP:  81;

BROWNWOOD      MOCLDY    77  63  61 SE10      29.90S
COLEMAN        CLEAR     78  58  49 S9        29.89F
6HR MIN TEMP:  75; 6HR MAX TEMP:  84;

$$

TXZ143>147-156>162-174-175-210100-
CENTRAL TEXAS

CITY           SKY/WX    TMP DP  RH WIND       PRES   REMARKS
WACO           PTCLDY    80  66  62 SE10      29.90R
6HR MIN TEMP:  78; 6HR MAX TEMP:  86;

WACO-TSTC      PTCLDY    81  66  61 SE9       29.91R
WACO-MCGREGOR  PTCLDY    80  64  58 SE13      29.91R
6HR MIN TEMP:  79; 6HR MAX TEMP:  86;

HILLSBORO      MOCLDY    77  67  72 SE16      29.91R
6HR MIN TEMP:  73; 6HR MAX TEMP:  84;

CORSICANA      CLEAR     75  67  76 SE14      29.94S
6HR MIN TEMP:  75; 6HR MAX TEMP:  84;

MEXIA          MOCLDY    74  67  77 SE10G22   29.93S
6HR MIN TEMP:  74; 6HR MAX TEMP:  84;

HEARNE         PTCLDY    78  70  76 E12G17    29.94R
6HR MIN TEMP:  78; 6HR MAX TEMP:  86;

CAMERON        PTCLDY    79  68  69 SE8       29.92R
6HR MIN TEMP:  79; 6HR MAX TEMP:  89;

TEMPLE         PTCLDY    80  62  54 SE10      29.91S
6HR MIN TEMP:  78; 6HR MAX TEMP:  86;

KILLEEN        NOT AVBL
KILLEEN-SKYLRK MOCLDY    78  66  66 SE9       29.91F
6HR MIN TEMP:  73; 6HR MAX TEMP:  84; 6HR PCP: TRACE;

FORT HOOD      MOCLDY    77  64  64 S8        29.88S
6HR MIN TEMP:  71; 6HR MAX TEMP:  83;

GATESVILLE     PTCLDY    79  64  61 S3        29.93S
HAMILTON       CLOUDY    76  67  71 S8        29.93S
6HR MIN TEMP:  72; 6HR MAX TEMP:  80;

LAMPASAS       PTCLDY    76  67  75 SE8       29.92S
6HR MIN TEMP:  71; 6HR MAX TEMP:  81;

$$

TXZ095>097-106>112-122>126-135>138-148>153-164>167-210100-
EAST TEXAS

CITY           SKY/WX    TMP DP  RH WIND       PRES   REMARKS
PARIS          CLEAR     74  61  63 SE14      29.95F
6HR MIN TEMP:  74; 6HR MAX TEMP:  81;

SULPHUR SPRNGS PTCLDY    76  59  56 SE9G16    29.96F
6HR MIN TEMP:  75; 6HR MAX TEMP:  84;

MOUNT PLEASANT CLEAR     72  60  67 SE6       29.99S
6HR MIN TEMP:  72; 6HR MAX TEMP:  83;

GILMER         CLEAR     74  60  62 E6        29.98S
6HR MIN TEMP:  74; 6HR MAX TEMP:  81;

MINEOLA        CLEAR     75  63  64 SE3       29.96S
TYLER          PTCLDY    75  63  66 SE10      29.97S
6HR MIN TEMP:  75; 6HR MAX TEMP:  83;

LONGVIEW       PTCLDY    75  63  66 SE8       29.98F
6HR MIN TEMP:  75; 6HR MAX TEMP:  82; 6HR PCP: TRACE;

MARSHALL       PTCLDY    73  58  60 CALM      30.02S
6HR MIN TEMP:  73; 6HR MAX TEMP:  78;

ATHENS         CLEAR     73  63  68 SE8       29.94F
PALESTINE      PTCLDY    74  67  79 SE6       29.98S
JACKSONVILLE   PTCLDY    73  66  79 SE5       30.00S
HENDERSON      CLEAR     75  62  64 SE8       29.99S
6HR MIN TEMP:  74; 6HR MAX TEMP:  82;

CENTER         PTCLDY    76  65  70 CALM      30.02S
6HR MIN TEMP:  76; 6HR MAX TEMP:  83;

NACOGDOCHES    CLOUDY    73  64  73 SE6       30.00S
6HR MIN TEMP:  73; 6HR MAX TEMP:  80;

LUFKIN         PTCLDY    71  65  81 SE10      29.99R
6HR MIN TEMP:  71; 6HR MAX TEMP:  80; 6HR PCP: TRACE;

$$

SUPPLEMENTAL OBSERVATIONS (NWS FORT WORTH AREA)

CITY           SKY/WX    TMP DP  RH WIND       PRES   REMARKS
$$

SUPPLEMENTAL OBSERVATIONS (NWS NORMAN AREA)

CITY           SKY/WX    TMP DP  RH WIND       PRES   REMARKS
GOODLETT         N/A     79  57  46 S18G24    29.79F
ODELL            N/A     78  62  58 SE16      29.83S
CROWELL          N/A     79  60  51 S16       29.82F
KNOX CITY        N/A     80  57  44 S17       29.83S
SEYMOUR          N/A     78  61  56 SE16      29.84S
$$

SUPPLEMENTAL OBSERVATIONS (NWS SAN ANGELO AREA)

CITY           SKY/WX    TMP DP  RH WIND       PRES   REMARKS
WEINERT          N/A     80  59  49 S14



USA.gov is the U.S. government's official web portal to all federal, state and local government web resources and services.